Location: Newark
(0.5300°S, 127.4800°E)
Time: 09:37:51
(UTC+00:00)

Tiros 1 - All Passes

Search period start: 15 September 2019 00:00
Search period end: 25 September 2019 00:00
Orbit: 631 x 664 km, 48.4° (Epoch: 14 September)

Date Brightness Start Highest point End Pass type
(mag) Time Alt. Az. Time Alt. Az. Time Alt. Az.
15 Sep - 02:04:16 10° SSE 02:06:49 14° SE 02:09:20 10° E daylight
15 Sep - 03:44:19 10° SW 03:48:54 47° NW 03:53:27 10° NNE daylight
15 Sep - 14:16:26 10° N 14:19:59 22° NE 14:23:34 10° ESE night (unlit)
15 Sep - 15:58:03 10° WNW 16:01:59 28° SW 16:05:59 10° S night (unlit)
16 Sep - 02:28:19 10° SSW 02:32:53 44° SE 02:37:25 10° ENE daylight
16 Sep - 04:12:17 10° W 04:14:57 15° NW 04:17:35 10° NNW daylight
16 Sep - 14:41:23 10° NW 14:45:59 75° NE 14:50:38 10° SE night (unlit)
17 Sep - 01:14:44 10° SSE 01:16:47 13° SE 01:18:49 10° ESE daylight
17 Sep - 02:54:13 10° SW 02:58:54 53° NW 03:03:32 10° NNE daylight
17 Sep - 13:26:41 10° N 13:29:59 19° NE 13:33:18 10° E night (unlit)
17 Sep - 15:07:54 10° WNW 15:11:59 31° SW 15:16:07 10° SSE night (unlit)
18 Sep - 01:38:24 10° SSW 01:42:53 39° SE 01:47:20 10° ENE daylight
18 Sep - 03:21:53 10° W 03:24:55 17° NW 03:27:57 10° N daylight
18 Sep - 13:51:25 10° NNW 13:55:59 65° NE 14:00:35 10° SE night (unlit)
19 Sep - 00:25:25 10° SSE 00:26:45 11° SE 00:28:04 10° ESE daylight
19 Sep - 02:04:09 10° SW 02:08:53 61° NW 02:13:35 10° NNE daylight
19 Sep - 12:36:58 10° N 12:39:58 17° NE 12:43:00 10° E night (unlit)
19 Sep - 14:17:47 10° WNW 14:22:00 35° SW 14:26:15 10° SSE night (unlit)
20 Sep - 00:48:29 10° SSW 00:52:52 35° SE 00:57:12 10° ENE daylight
20 Sep - 02:31:32 10° W 02:34:54 19° NW 02:38:14 10° N daylight
20 Sep - 13:01:29 10° NNW 13:06:00 57° NE 13:10:32 10° SE night (unlit)
20 Sep - 14:46:55 10° WSW 14:48:06 11° SW 14:49:18 10° SW night (unlit)
21 Sep - 01:14:05 10° SW 01:18:52 70° NW 01:23:37 10° NNE daylight
21 Sep - 11:47:18 10° NNE 11:49:58 15° NE 11:52:39 10° E night (unlit)
21 Sep - 13:27:41 10° WNW 13:31:59 40° SW 13:36:21 10° SSE night (unlit)
21 Sep - 23:58:36 10° S 00:02:51 31° SE 00:07:04 10° ENE daylight
22 Sep - 01:41:15 10° W 01:44:53 21° NW 01:48:29 10° N daylight
22 Sep - 12:11:33 10° NNW 12:16:00 50° NE 12:20:29 10° SE night (unlit)
22 Sep - 13:56:09 10° WSW 13:58:05 12° SW 14:00:01 10° SSW night (unlit)
23 Sep - 00:24:03 10° SW 00:28:52 79° NW 00:33:38 10° NE daylight
23 Sep - 10:57:44 10° NNE 10:59:58 13° NE 11:02:12 10° E visible
23 Sep - 12:37:36 10° NW 12:42:00 45° SW 12:46:26 10° SSE night (unlit)
23 Sep - 23:08:45 10° S 23:12:50 27° SE 23:16:53 10° ENE daylight
24 Sep - 00:51:01 10° WSW 00:54:51 24° NW 00:58:43 10° N daylight
24 Sep - 11:21:39 10° NNW 11:26:01 43° NE 11:30:24 10° ESE visible
24 Sep - 13:05:39 10° W 13:08:04 14° SW 13:10:30 10° SSW night (unlit)
24 Sep - 23:34:01 10° SW 23:38:50 89° WNW 23:43:38 10° NE daylight
